This is the latest recevied weather packets stored in our database for station/object KC8YYF. If no packets are shown the sender has not sent any weather packets the latest 10 day(s).
| Time | Temp. | Humidity | Pressure | Rain* | Wind** | Luminosity | Snow |
|---|---|---|---|---|---|---|---|
| 1777617657 | 4.44° C | 85% | 1014.9 hPa | 0 mm | - | 0 W/m² | - |
| 1777617348 | 4.44° C | 86% | 1015 hPa | 0 mm | - | 0 W/m² | - |
| 1777617046 | 4.44° C | 87% | 1014.9 hPa | 0 mm | - | 0 W/m² | - |
| 1777616745 | 3.89° C | 88% | 1015.2 hPa | 0 mm | - | 0 W/m² | - |
| 1777616440 | 4.44° C | 90% | 1015.1 hPa | 0 mm | - | 0 W/m² | - |
| 1777616137 | 4.44° C | 89% | 1015.1 hPa | 0 mm | - | 0 W/m² | - |
| 1777615834 | 4.44° C | 87% | 1015.2 hPa | 0 mm | - | 0 W/m² | - |
| 1777615531 | 4.44° C | 86% | 1015 hPa | 0 mm | - | 0 W/m² | - |
| 1777615227 | 4.44° C | 86% | 1015.1 hPa | 0 mm | - | 0 W/m² | - |
| 1777614921 | 4.44° C | 86% | 1015.1 hPa | 0 mm | - | 0 W/m² | - |
| 1777614618 | 3.89° C | 89% | 1015.3 hPa | 0 mm | - | 0 W/m² | - |
| 1777614314 | 3.89° C | 91% | 1015.2 hPa | 0 mm | - | 0 W/m² | - |
| 1777614009 | 3.89° C | 91% | 1015.4 hPa | 0 mm | - | 0 W/m² | - |
| 1777613705 | 3.89° C | 91% | 1015.5 hPa | 0 mm | - | 0 W/m² | - |
| 1777613402 | 3.89° C | 91% | 1015.7 hPa | 0 mm | - | 0 W/m² | - |
| 1777613098 | 4.44° C | 91% | 1015.5 hPa | 0 mm | - | 0 W/m² | - |
| 1777612795 | 4.44° C | 91% | 1015.7 hPa | 0 mm | - | 0 W/m² | - |
| 1777612491 | 4.44° C | 91% | 1015.7 hPa | 0 mm | - | 0 W/m² | - |
| 1777612187 | 4.44° C | 89% | 1015.6 hPa | 0 mm | - | 0 W/m² | - |
| 1777611882 | 4.44° C | 88% | 1015.8 hPa | 0 mm | - | 0 W/m² | - |
| 1777611578 | 4.44° C | 88% | 1015.5 hPa | 0 mm | - | 0 W/m² | - |
| 1777611274 | 5° C | 88% | 1015.4 hPa | 0 mm | - | 0 W/m² | - |
| 1777610972 | 5° C | 87% | 1015.7 hPa | 0 mm | - | 0 W/m² | - |
| 1777610667 | 5° C | 85% | 1015.6 hPa | 0 mm | - | 0 W/m² | - |
| 1777610366 | 5.56° C | 82% | 1015.5 hPa | 0 mm | - | 0 W/m² | - |
* Rain latest hour (hover to see other rain measurements)
** Current wind speed in m/s (hover to see current wind gust speed)